www.pogodaiklimat.ru

Погода и климат >> Архив погоды >> Россия >> Якутия >> Черский


ПОГОДА в Черском

  • Прогноз погоды в Черском
  • Монитор погоды в Черском

АРХИВ ПОГОДЫ в Черском

Время (UTC), дата Ветер
(напр.,м/с)
 
Видим.   Явления Облачность Т
(С)
Тd
(С)
f
(%)
Тe
(С)
Тes
(С)
Комфортность P
(гПа)
Po
(гПа)
Тmin
(С)
Tmax
(С)
R
(мм)
R24
(мм)
S
(см)
18 11.07 ЮВ 2 20 км 4/0
[Ac As]
+20.1 +13.1 64 +23 +24 комфорт 1006.3 1003.4
21 11.07 ЮВ 2 20 км 6/3 1500 м
[Cb cap Ac As]
+22.9 +18.0 74 +28 +31 душно 1006.7 1003.8 +19.3
00 12.07 ЮВ 2 200 м 6/0 200 м
[Ac und]
+28.0 +15.7 47 +31 +37 душно 1006.5 1003.6
03 12.07 С 1 20 км 6/0
[Ac und Ci sp]
+30.5 +11.0 30 +31 +39 жарко 1005.7 1002.9
06 12.07 З 1 20 км 8/0
[Ac trans Ci sp]
+31.5 +14.8 36 +33 +37 жарко 1005.3 1002.5
09 12.07 С 3 20 км 8/0
[Ac As Ci sp]
+26.6 +18.1 60 +31 +32 душно 1006.0 1003.1 +32.2
12 12.07 СВ 3 20 км 8/0
[Ac trans]
+21.2 +16.7 75 +25 +25 комфорт 1006.3 1003.4
15 12.07 С 5 20 км 8/0
[Ac trans]
+15.6 +14.4 93 +14 +14 1006.8 1003.8
18 12.07 С 4 20 км 3/0
[Ac trans]
+14.4 +12.9 91 +13 +14 1006.9 1003.9
21 12.07 С 2 20 км ясно +16.2 +13.9 86 +16 +22 1007.6 1004.6 +14.4
00 13.07 СЗ 4 20 км ясно +19.3 +13.5 69 +21 +27 комфорт 1007.6 1004.7
03 13.07 СЗ 4 20 км 5/3 1500 м
[Cu med, cong Ci fib]
+21.8 +14.9 65 +25 +29 комфорт 1006.8 1003.9
06 13.07 С 3 20 км 9/0
[Ac trans Ci fib]
+23.3 +15.7 62 +28 +31 душно 1006.5 1003.6
09 13.07 С 2 20 км 8/0
[Ac trans Ci]
+21.7 +15.7 69 +25 +26 комфорт 1006.7 1003.8 +23.9
12 13.07 штиль 0 20 км 8/0
[Ac trans Ci]
+16.6 +13.4 81 +16 +16 1006.6 1003.6
15 13.07 С 3 20 км 8/0
[Ac As]
+13.8 +12.7 93 +13 +13 1007.2 1004.2
18 13.07 С 3 20 км 10/0
[Ac As]
+11.8 +10.3 91 +10 +10 1007.9 1004.9
21 13.07 С 4 20 км в посл. час дождь 9/4 600 м
[Sc Ac As]
+11.1 +8.6 85 +9 +10 1008.7 1005.7 +10.9 0.4
00 14.07 С 4 20 км {дождь} 10/0
[Ac As]
+12.1 +8.6 79 +10 +12 1008.9 1005.9
03 14.07 С 4 20 км 9/0
[Ac As]
+13.4 +8.9 74 +12 +14 1007.8 1004.8
06 14.07 С 3 20 км 9/0
[Ac As]
+13.4 +9.7 78 +12 +14 1006.5 1003.5
09 14.07 С 3 20 км 9/0
[Ac As]
+14.2 +9.9 75 +13 +13 1005.3 1002.3 +14.7
12 14.07 С 3 20 км 10/0
[Ac As Cs]
+12.2 +10.3 88 +11 +11 1004.1 1001.1
15 14.07 С 3 20 км 10/0
[Ac As Cs]
+11.0 +9.8 92 +9 +9 1002.3 999.3
18 14.07 СВ 4 20 км 10/0
[Ac As Cs]
+9.8 +8.0 89 +7 +7 1001.7 998.7
21 14.07 С 4 20 км {ливн. осадки} 10/10 120 м
[St]
+9.2 +8.4 95 +6 +6 1002.7 999.7 +9.2 1
00 15.07 С 6-11
{12}
20 км {ливн. осадки} 9/8 200 м
[St Ci fib]
+9.8 +7.7 87 +6 +7 1003.8 1000.8
03 15.07 С 5-10
{13}
20 км 9/8 360 м
[Sc Ac trans]
+9.8 +6.8 82 +7 +7 1005.2 1002.2
06 15.07 С 4
{11}
20 км 8/0
[Ac lent]
+11.9 +6.8 71 +10 +11 1005.8 1002.8
09 15.07 С 4 20 км 6/0
[Ac As Ci fib]
+10.6 +5.3 70 +8 +9 1006.7 1003.7 +12.3 0.0
12 15.07 С 2 20 км 8/0
[Ac As]
+9.2 +4.5 72 +8 +8 1007.2 1004.1
15 15.07 С 1 20 км 10/10 1000 м
[Sc]
+9.6 +4.0 68 +9 +9 1007.2 1004.1
18 15.07 С 3 20 км 8/6 300 м
[Sc Ci fib]
+9.2 +7.1 87 +7 +7 1006.9 1003.8
21 15.07 С 2 20 км 3/3 1500 м
[Sc]
+10.8 +4.1 63 +10 +13 1006.8 1003.8 +8.1
00 16.07 З 4 20 км 9/9 1000 м
[Sc]
+11.9 +6.7 70 +10 +11 1006.4 1003.4
03 16.07 З 5
{10}
20 км слаб. ливневой дождь 10/10 1080 м
[Cu hum]
+11.4 +8.4 82 +9 +9 1004.9 1001.9
06 16.07 СЗ 6
{10}
20 км {ливн. осадки} 10/8 1500 м
[Sc Ac As]
+12.6 +5.3 61 +10 +10 1005.1 1002.1
09 16.07 ЮЗ 4 20 км 10/6 1000 м
[Sc Ac As]
+10.9 +8.4 85 +8 +9 1005.0 1002.0 +12.6 0.5
12 16.07 З 3 20 км {дождь} 9/6 300 м
[Sc Ac As]
+9.8 +7.7 87 +8 +8 1005.4 1002.4
15 16.07 З 2 20 км 8/0
[Ac As]
+8.7 +6.8 88 +7 +7 1006.0 1002.9
18 16.07 СЗ 3 20 км 10/10 360 м
[Sc]
+6.0 +4.1 88 +3 +3 1006.7 1003.6
21 16.07 СЗ 3 20 км {морось} 9/8 360 м
[Sc Ac As]
+6.4 +4.1 85 +3 +4 1007.6 1004.5 +5.2 0.8
00 17.07 СЗ 3 20 км {ливн. осадки} 9/8 930 м
[Cb cap Ac As]
+8.4 +5.5 82 +6 +7 1007.4 1004.3
03 17.07 штиль 0 20 км 8/6 1000 м
[Cb cap Ac As]
+9.9 +4.3 68 +9 +13 1006.9 1003.8
06 17.07 СЗ 3 20 км {ливн. осадки} 8/6 1500 м
[Cb cap Ac As]
+11.2 +3.8 60 +10 +11 1006.1 1003.1
09 17.07 СЗ 1 20 км 8/6 1500 м
[Cb cap Ac As]
+10.5 +2.7 58 +10 +11 1005.7 1002.7 +11.2 0.0
12 17.07 С 3 20 км 10/9 1000 м
[Sc Ac As]
+8.9 +6.1 83 +6 +6 1005.7 1002.7
15 17.07 СВ 2 20 км слаб. дождь 9/8 1000 м
[Sc Ac As]
+6.0 +6.0 100 +3 +3 1006.0 1002.9
18 17.07 С 3 20 км {дождь} 9/9 1000 м
[Sc]
+7.4 +5.1 85 +5 +5 1006.3 1003.2
21 17.07 С 4 20 км 8/8 300 м
[Sc]
+7.1 +4.3 82 +4 +4 1007.2 1004.1 +5.9 0.3
00 18.07 С 3 20 км 8/8 900 м
[Sc]
+7.9 +1.3 63 +5 +7 1008.6 1005.5
03 18.07 С 3 20 км 9/9 900 м
[Sc]
+8.9 +1.9 61 +7 +7 1009.1 1006.0
06 18.07 С 3 20 км 8/8 900 м
[Sc]
+8.8 +2.7 66 +7 +7 1009.9 1006.8
09 18.07 С 3 20 км 8/8 600 м
[Sc]
+8.5 +3.0 68 +6 +6 1010.8 1007.7 +9.3
12 18.07 СВ 2 20 км 8/8 600 м
[Sc]
+5.3 +0.1 69 +3 +3 1012.1 1009.0
15 18.07 СВ 3 20 км 6/6 600 м
[Sc]
+2.5 -0.2 82 -2 -2 1013.2 1010.0

 

Местоположение метеостанции Черский (Якутия, Россия): широта 68.73 долгота 161.30 высота над уровнем моря 28 м.

В архиве по умолчанию представлена погода в Черском за последнюю неделю. Архивные данные за месяц целиком и за предыдущие месяцы, начиная с января 2011 года, Вы можете получить, выбрав интересующий диапазон дат из раскрывающегося списка и нажав кнопку "Ввод!".


*Определитесь, кто Вы:
робот инопланетянин человек

Внимание! Время в таблицах - всемирное. Для получения местного времени необходимо прибавить поправку, которая равна 11 ч.

Смотрите также архив погоды в соседних городах и на ближайших метеорологических станциях:

Погода в Анюйске (Чукотка, Россия) (43 км)
Погода в Константиновской (Чукотка, Россия) (65 км)
Погода в Бухте Амбарчик (Чукотка, Россия) (107 км)
Погода в Колымской (Якутия, Россия) (109 км)
Погода в Островном (Чукотка, Россия) (133 км)
Погода в Билибино (Чукотка, Россия) (222 км)
Погода в Раучуе (Чукотка, Россия) (223 км)
Погода в Баимке (Чукотка, Россия) (274 км)
Погода в Андрюшкино (Якутия, Россия) (276 км)
Погода на Айон Острове (Чукотка, Россия) (291 км)

Пояснения к столбцам:

Ветер - указаны скорость ветра в м/с - средняя за 10 мин, порывы в срок и между сроками (в фигурных скобках) и направление, откуда дует ветер: С - северный, СВ - северо-восточный, В - восточный, ЮВ - юго-восточный, Ю - южный, ЮЗ - юго-западный, З - западный, СЗ - северо-западный.
Видимость - горизонтальная дальность видимости в метрах или километрах. При видимости от 1 до 10 км при отсутствии осадков обычно наблюдается дымка, при ухудшении видимости до 1 км и менее - туман. В сухую погоду видимость может ухудшаться дымом, пылью или мглою.
Явления - указаны атмосферные явления, наблюдавшиеся в срок или в последний час перед сроком; фигурными скобками обозначены явления, наблюдавшиеся между сроками (за 1-3 часа до срока); квадратными скобками обозначены град или гололедные отложения с указанием их диаметра в мм.
Облачность - указаны через наклонную черту общая и нижняя облачность в баллах и высота нижней границы облаков в метрах; квадратными скобками обозначены формы облаков: Ci - перистые, Cs - перисто-слоистые, Cc - перисто-кучевые, Ac - высококучевые, As - высокослоистые, Sc - слоисто-кучевые, Ns - слоисто-дождевые, Cu - кучевые, Cb - кучево-дождевые. Подробнее классификацию облаков см. в Атласе облаков (PDF).
T - Температура воздуха - температура, измеренная на высоте 2 м над землей.
Td - Температура точки росы - температура, при понижении до которой содержащийся в воздухе водяной пар достигнет насыщения.
f - Относительная влажность воздуха - влажноcть воздуха, измеренная на высоте 2 м над землей.
Te - Эффективная температура - температура, которую ощущает одетый по сезону человек в тени. Характеристика душности погоды. При расчете учитывается влияние влажности воздуха и скорости ветра на теплоощущения человека.
Tes - Эффективная температура на солнце - температура, которую ощущает человек, с поправкой на солнечный нагрев. Характеристика знойности погоды. Зависит от высоты солнца над горизонтом, облачности и скорости ветра. Ночью, в пасмурную погоду, а также при ветре 12 м/с и более поправка равна нулю.
P - Атмосферное давление - приведенное к уровню моря атмосферное давление.
Po - Атмосферное давление - измеренное на уровне метеостанции атмосферное давление.
Tmin - Минимальная температура - минимум температуры воздуха на высоте 2 м над землей.
Tmax - Максимальная температура - максимум температуры воздуха на высоте 2 м над землей.
R - Количество осадков - Количество выпавших осадков за период времени, мм. При наведении курсора мыши на число - период времени, за который выпало указанное количество осадков.
R24 - Количество осадков - Количество выпавших осадков за 24 часа, мм.
S - Снежный покров - Высота снежного покрова, см. При наведении курсора мыши на число - состояние снежного покрова и степень покрытия местности в баллах.